Temperature
29 26 25 26 27 27 28 28 28 28 29 28 27 26 26 26 25 25 24 24 24 24 24 23 23 23 22 22 21 21 21 20 20 19 19 19 19 18 18 18 18 18 18 18
25 25 27 28 29 29 29 28 28 28 29 28 26 26 26 25 25 25 24 24 24 24 23 23 23 23 22 22 22 21 21 20 20 20 19 19 19 18 18 18 18 18 18 18
26 27 29 29 29 29 28 28 28 28 28 27 26 25 25 25 26 25 25 25 24 24 24 23 23 23 22 22 22 21 21 20 20 20 19 19 18 18 18 18 18 18 18 18
26 28 29 29 29 29 28 29 29 29 26 25 26 24 24 24 24 24 25 24 24 24 24 24 23 23 23 22 22 21 21 20 20 20 19 19 19 19 19 18 18 18 18 18
26 28 29 29 30 30 29 30 29 28 26 25 25 24 23 23 23 24 24 24 24 24 24 24 24 23 23 22 22 21 21 20 20 20 19 19 19 19 19 18 18 18 18 18
27 28 29 29 30 30 30 28 26 23 22 24 25 24 23 22 23 24 24 25 25 25 24 24 24 23 23 22 22 21 20 20 20 20 19 19 19 19 19 18 18 18 18 18
26 27 28 30 30 29 28 24 23 24 22 23 24 24 23 24 24 25 24 25 25 25 24 24 24 23 23 22 22 21 20 20 20 19 19 19 19 19 19 19 18 18 18 18
25 25 27 29 29 28 27 24 23 24 23 23 24 24 24 25 25 26 26 25 25 25 24 24 24 24 23 22 22 21 21 20 20 20 19 19 19 19 19 19 19 18 18 18
24 25 27 29 30 29 28 25 22 22 23 23 23 24 24 25 24 25 25 25 24 25 25 24 24 24 23 23 22 22 21 21 20 20 20 19 19 19 19 19 18 18 18 18
24 25 26 28 29 29 28 26 21 22 22 23 23 24 23 24 24 24 24 24 24 24 25 24 24 24 23 23 22 22 21 21 20 20 19 19 19 19 19 19 18 18 18 18
24 24 25 26 27 27 28 27 22 20 20 21 22 22 23 23 23 23 23 24 25 24 25 24 24 24 23 23 22 22 21 21 20 20 19 19 19 19 19 18 18 18 18 18
23 21 22 24 25 27 27 26 22 22 22 20 21 22 24 23 23 23 23 24 25 25 24 24 24 24 23 23 22 22 21 20 20 20 19 19 19 19 19 18 18 18 18 18
23 21 21 23 23 25 26 26 23 20 20 20 21 22 23 22 22 23 23 24 24 25 24 24 24 23 23 23 22 22 21 21 20 20 19 19 19 19 18 18 18 18 18 18
23 19 21 22 22 24 25 26 25 22 21 21 22 22 22 21 21 22 23 24 24 24 24 24 24 23 23 22 22 22 21 21 20 20 20 19 19 19 18 18 18 18 18 18
20 20 21 22 24 25 26 26 26 25 22 22 22 21 21 21 21 22 23 23 23 23 23 23 23 23 23 22 22 21 21 21 20 20 20 19 19 19 18 18 18 18 18 17
18 20 20 21 24 25 25 26 26 26 25 23 22 22 21 22 23 22 23 23 22 23 23 23 23 23 22 22 22 21 21 21 20 20 20 19 19 19 18 18 18 17 17 17
17 18 19 19 21 23 23 24 25 24 24 23 22 21 21 21 21 22 22 22 22 22 23 22 23 23 22 22 22 21 21 20 20 20 19 19 19 18 18 18 17 17 17 17
18 17 16 18 21 22 21 22 24 24 23 22 22 21 21 21 22 23 23 23 23 23 23 23 23 22 22 22 22 21 21 20 20 19 19 19 19 18 18 17 17 17 16 16
17 17 17 17 19 20 21 23 23 22 21 21 21 21 21 22 21 21 22 23 24 24 23 23 23 22 22 22 21 21 20 20 20 19 19 19 18 18 18 17 17 17 16 16
17 16 17 17 19 19 20 22 23 22 20 21 21 21 21 21 19 19 22 23 23 23 23 23 22 22 22 22 21 21 20 20 19 19 19 19 18 18 18 17 17 16 16 16
17 17 17 17 18 18 20 21 22 21 19 20 21 21 21 20 20 21 22 22 23 23 22 22 22 22 21 21 21 20 20 20 19 19 18 18 18 17 17 17 16 16 16 15
16 16 16 16 17 18 19 19 19 18 19 20 20 20 21 21 21 21 21 22 22 22 22 21 21 21 21 21 20 20 20 19 19 18 18 17 17 17 16 16 16 16 15 15
15 15 14 15 16 17 18 18 19 19 18 19 19 20 20 20 20 20 20 20 21 21 21 21 21 20 20 20 20 19 19 18 18 18 17 17 17 16 16 16 15 15 15 15
15 15 14 15 15 16 17 18 18 19 19 19 19 20 20 19 19 19 19 19 20 20 20 20 20 19 19 19 19 19 18 18 17 17 17 16 16 16 15 15 15 15 15 14
15 14 14 14 15 16 17 17 17 18 18 19 19 19 19 19 18 18 18 18 18 18 18 19 19 18 18 18 18 18 17 17 17 17 16 16 16 15 15 15 14 14 14 14
14 14 14 14 15 14 15 16 17 17 17 18 18 18 18 18 18 18 18 17 18 18 17 17 17 17 17 17 17 17 16 16 16 16 16 15 15 15 15 14 14 14 13 13
Wind_Speed
3 3 4 8 6 7 5 3 4 4 4 4 5 9 12 12 11 12 11 11 11 12 10 11 12 12 12 10 10 10 9 8 6 4 4 3 3 2 2 4 7 8 8 8
5 5 11 8 6 4 3 3 3 1 2 4 4 4 8 11 14 14 14 14 14 12 10 11 10 11 12 12 10 10 9 9 7 5 4 3 3 3 3 2 4 6 7 7
7 9 7 5 5 4 3 4 4 2 2 4 6 2 3 5 7 9 12 13 14 16 15 14 12 12 12 12 12 11 9 8 8 6 4 3 2 1 1 1 2 3 6 6
7 9 6 6 6 3 4 5 3 4 3 2 3 2 5 4 5 8 10 12 14 14 14 13 13 13 14 13 11 10 9 8 8 7 6 6 4 3 3 3 3 3 4 5
6 4 4 6 7 4 5 4 2 3 3 2 2 4 5 1 5 9 10 13 13 14 16 15 14 14 13 12 11 10 9 8 8 7 8 6 4 4 3 2 3 3 2 3
8 6 5 7 6 4 2 3 6 6 5 1 3 4 5 5 9 9 9 11 12 12 13 12 11 10 9 10 9 9 9 8 8 8 7 7 7 6 5 4 4 3 2 2
7 9 6 4 2 4 4 6 5 6 5 5 4 2 7 8 9 10 11 11 11 12 12 12 12 11 10 11 11 10 10 8 8 8 8 8 8 7 7 5 4 4 2 2
4 8 7 4 6 5 4 10 8 5 4 5 4 2 6 6 5 5 7 9 10 12 11 13 14 14 13 12 11 11 10 9 8 8 8 7 7 6 5 5 4 4 3 3
6 7 7 5 5 8 4 5 10 8 3 1 4 5 6 3 3 3 6 9 10 12 12 12 12 12 12 12 11 11 11 9 8 8 8 7 7 6 6 5 4 4 3 3
9 5 8 6 2 1 7 8 7 6 4 2 5 3 3 3 3 3 5 9 9 10 11 11 11 12 11 11 10 10 10 10 8 8 8 8 7 6 6 5 5 4 3 3
7 6 7 4 2 5 2 4 6 5 6 7 3 6 5 7 7 7 6 7 11 12 12 11 11 11 11 10 10 10 10 8 8 8 7 7 6 6 5 5 5 4 3 3
3 6 4 7 7 6 7 7 8 5 4 6 5 6 5 7 9 9 7 6 8 9 9 10 10 10 10 10 10 10 9 9 8 8 7 7 6 6 5 5 4 4 4 3
3 6 1 8 8 6 0 2 5 7 5 5 5 6 3 2 4 6 7 6 7 7 7 7 8 9 10 10 10 10 10 9 8 8 8 7 6 6 5 5 4 4 4 3
4 5 6 8 7 4 4 4 1 6 4 5 7 6 4 4 6 6 7 7 8 6 7 8 9 9 9 9 9 9 8 8 9 8 8 7 7 6 6 5 5 5 4 4
5 3 1 4 5 2 3 5 3 2 7 8 8 9 9 10 11 10 9 8 8 6 7 8 9 8 8 8 8 8 8 8 9 9 8 7 6 6 5 5 5 4 4 4
5 3 4 5 5 4 4 5 5 3 2 4 5 5 7 6 5 5 7 9 9 8 9 9 8 8 8 9 9 9 9 9 9 9 8 8 7 7 6 6 5 5 4 3
3 4 3 4 6 5 5 4 2 4 2 4 5 6 4 4 6 8 9 10 9 9 8 8 8 8 8 8 10 11 10 9 9 9 8 8 8 7 7 6 6 5 4 3
4 3 2 0 3 4 7 4 2 3 3 1 3 4 6 7 7 7 8 11 11 9 8 8 8 8 7 7 7 8 9 10 10 9 9 8 8 7 6 6 5 4 4 3
7 6 3 2 2 6 6 5 2 2 4 2 3 3 3 4 5 3 1 5 8 8 7 7 7 7 7 7 8 8 9 9 9 9 9 8 8 8 7 6 5 4 4 3
4 6 5 3 3 6 6 6 3 4 2 3 3 4 3 5 4 3 3 3 5 5 6 6 6 6 7 6 8 9 8 8 9 8 8 8 8 8 8 7 5 4 4 4
4 3 3 4 5 6 5 7 4 1 5 4 1 3 4 4 6 5 3 3 4 4 5 6 7 7 7 7 9 9 8 8 7 7 7 6 6 6 6 5 4 4 4 4
2 2 2 3 3 7 5 4 1 4 3 1 1 1 4 5 6 6 5 4 6 6 6 7 7 6 5 7 9 8 7 6 7 8 8 7 6 5 5 5 5 4 5 4
1 4 4 4 5 4 2 1 2 1 1 1 1 2 6 7 6 7 5 5 6 7 6 6 7 6 5 6 8 8 6 7 8 8 8 7 6 4 4 5 5 4 4 4
4 2 1 1 2 3 3 2 4 3 2 2 3 4 6 8 7 6 6 6 6 7 6 6 8 7 5 4 5 6 7 8 9 9 7 7 7 5 4 4 4 4 3 4
4 3 2 1 3 5 5 4 4 5 5 5 4 4 5 9 8 6 6 6 6 6 5 6 7 7 6 5 6 6 7 9 9 8 7 6 6 6 5 4 3 3 3 4
3 2 3 4 4 2 4 4 3 4 4 4 5 5 2 5 7 6 5 4 6 6 5 6 6 6 5 5 5 4 6 8 9 8 6 5 5 5 5 4 2 3 2 2
Wind_Direction
328 68 254 247 227 217 223 241 248 245 194 128 149 159 171 175 179 180 178 174 177 188 185 176 172 164 162 162 161 162 162 170 162 157 157 157 173 185 185 187 189 186 186 182
9 273 243 242 255 259 244 279 274 289 124 127 139 162 180 178 188 186 182 180 184 185 176 175 173 168 170 171 169 167 169 172 174 175 168 165 166 188 190 192 190 194 189 187
227 248 255 258 272 278 270 216 225 201 30 61 101 19 214 214 191 182 187 185 185 184 180 181 179 177 172 175 176 177 176 173 175 169 150 140 121 107 126 173 187 200 185 181
250 256 266 266 259 223 265 244 194 147 98 257 130 185 261 229 197 193 193 189 192 185 180 183 182 178 179 181 177 174 174 173 174 167 166 165 172 184 202 190 190 201 191 189
264 268 264 255 248 225 223 230 159 145 128 32 23 122 279 176 197 212 201 193 193 186 181 184 184 182 180 177 175 173 172 175 177 176 177 174 180 191 188 171 179 196 205 199
258 273 239 234 252 223 189 51 32 47 69 13 260 145 255 217 204 202 201 194 183 179 179 179 175 164 167 168 168 168 170 179 180 177 178 179 181 181 175 177 180 189 197 207
304 302 282 246 272 330 90 85 31 1 11 258 272 155 240 241 206 193 191 188 173 168 169 167 164 163 167 170 170 170 171 180 181 180 185 189 188 184 185 185 183 180 182 195
243 284 276 238 189 193 176 135 154 191 219 277 329 232 257 251 197 184 171 166 161 162 169 172 172 170 172 175 174 173 177 182 183 185 190 191 187 188 192 189 183 185 195 204
201 252 280 268 218 160 162 166 167 144 173 274 295 302 324 26 77 106 137 148 161 168 174 175 173 172 172 174 178 176 178 182 185 188 187 190 190 187 184 181 180 184 192 191
182 244 286 293 336 239 166 155 99 118 152 246 292 278 239 224 187 153 151 158 168 176 175 175 175 175 175 176 178 176 180 183 186 187 189 191 190 189 183 178 183 184 179 172
168 192 290 344 192 225 188 123 116 127 152 158 223 266 229 193 175 170 183 181 169 177 177 175 175 175 172 171 175 177 180 181 184 186 184 178 178 179 176 176 182 175 165 155
170 148 247 266 261 219 181 177 148 155 212 167 167 257 258 190 169 160 171 184 177 176 175 173 168 166 168 170 173 176 177 178 180 176 167 167 166 163 165 173 176 164 159 163
123 117 101 329 335 351 55 172 152 137 129 152 165 252 289 163 146 151 157 162 162 168 170 164 157 163 170 172 172 172 175 175 169 162 158 157 158 159 164 165 157 149 151 146
96 107 157 200 224 256 296 303 148 122 157 198 201 204 244 192 165 163 159 155 144 152 170 170 168 173 173 171 168 165 168 168 160 154 152 156 161 161 161 156 151 147 142 135
71 88 172 227 239 247 273 294 296 216 196 188 206 191 208 202 188 182 167 154 140 153 167 173 175 172 167 162 161 165 168 168 161 155 157 163 160 153 148 149 149 142 136 139
48 71 29 342 335 351 323 317 318 293 218 173 161 211 220 202 178 158 162 156 160 174 181 175 164 159 164 167 167 168 172 170 159 158 163 162 156 151 148 148 144 139 136 135
29 74 54 304 318 8 312 288 306 307 291 161 190 220 197 169 179 176 173 165 172 186 184 171 165 164 167 172 172 173 169 163 159 162 166 163 160 159 160 155 149 147 143 134
145 97 120 314 17 247 247 280 51 56 7 75 149 177 177 176 186 180 164 164 180 190 180 172 167 165 168 173 168 163 158 161 165 166 167 164 160 158 156 153 156 156 149 148
160 146 136 134 211 273 298 320 354 56 341 10 126 149 150 133 89 44 187 175 181 184 177 175 169 162 163 164 159 153 158 161 164 166 166 166 162 158 157 161 165 160 153 152
87 118 136 156 189 230 253 291 308 76 319 317 115 139 165 128 129 232 238 162 155 163 165 161 154 142 148 158 153 148 155 158 167 171 166 161 162 160 162 165 166 157 150 154
26 51 153 189 218 251 270 307 13 91 227 277 194 158 169 189 189 188 177 146 138 141 144 142 139 145 155 154 146 149 154 168 169 154 147 146 151 152 151 152 151 145 141 137
180 147 188 163 208 249 319 3 94 227 246 266 338 123 144 146 129 121 126 126 117 114 122 131 129 137 147 143 142 148 160 160 141 136 139 137 136 143 150 144 142 138 141 145
158 185 193 192 216 254 311 174 222 124 87 24 52 88 134 130 127 119 122 117 109 109 113 119 121 119 119 134 139 145 153 143 138 136 141 143 135 139 155 153 149 143 146 152
316 356 88 359 289 314 338 32 29 43 49 40 83 110 126 121 123 121 129 122 115 110 112 111 112 114 111 119 126 137 141 140 139 137 144 147 144 151 155 145 149 154 163 167
281 341 17 308 290 351 353 2 21 17 36 47 61 79 126 128 125 131 132 128 123 112 112 120 122 123 123 118 118 125 137 141 142 145 152 155 152 156 151 144 154 169 183 182
264 210 192 232 244 218 282 311 12 38 40 72 81 65 67 133 129 124 120 122 123 124 127 120 118 120 120 118 120 129 142 146 145 147 157 162 162 160 157 148 116 62 116 136
Height
1505 1512 1518 1513 1510 1512 1514 1517 1519 1512 1503 1509 1515 1518 1517 1518 1520 1522 1525 1527 1529 1531 1534 1536 1539 1540 1543 1544 1546 1547 1549 1550 1552 1553 1554 1555 1556 1557 1558 1559 1560 1561 1561 1562
1513 1516 1506 1503 1503 1506 1510 1516 1516 1509 1503 1509 1516 1518 1515 1516 1517 1518 1521 1524 1527 1529 1532 1534 1536 1539 1540 1542 1544 1546 1547 1549 1550 1552 1553 1554 1555 1556 1557 1558 1558 1559 1560 1560
1515 1508 1500 1501 1504 1508 1510 1513 1513 1513 1509 1510 1517 1527 1521 1516 1516 1517 1519 1520 1523 1525 1528 1531 1534 1536 1538 1540 1542 1544 1545 1547 1549 1550 1552 1553 1554 1554 1555 1556 1556 1557 1558 1559
1507 1500 1500 1502 1503 1504 1514 1501 1503 1508 1520 1529 1523 1544 1527 1520 1519 1517 1518 1519 1521 1523 1526 1529 1531 1534 1536 1538 1541 1543 1544 1546 1547 1549 1550 1551 1551 1552 1553 1554 1555 1556 1557 1557
1506 1498 1500 1502 1498 1497 1502 1495 1500 1506 1518 1528 1526 1538 1533 1522 1522 1517 1515 1516 1518 1520 1523 1526 1529 1531 1534 1537 1539 1541 1543 1545 1546 1547 1548 1549 1550 1551 1552 1552 1553 1554 1555 1555
1499 1494 1494 1494 1490 1490 1493 1499 1507 1517 1528 1543 1530 1536 1537 1524 1516 1512 1512 1513 1515 1518 1522 1525 1528 1531 1534 1536 1538 1540 1541 1542 1544 1545 1546 1547 1548 1549 1550 1550 1551 1552 1553 1553
1504 1496 1490 1489 1493 1492 1496 1520 1542 1545 1554 1548 1528 1531 1531 1509 1504 1504 1506 1509 1512 1515 1519 1522 1525 1529 1532 1534 1536 1538 1539 1541 1542 1543 1544 1546 1547 1547 1548 1549 1549 1550 1551 1551
1516 1515 1493 1487 1491 1499 1500 1516 1544 1555 1557 1548 1531 1532 1519 1501 1499 1501 1503 1506 1511 1514 1517 1520 1523 1525 1529 1531 1534 1535 1537 1538 1540 1541 1542 1543 1545 1546 1547 1547 1548 1549 1549 1550
1514 1512 1489 1484 1483 1488 1499 1510 1515 1536 1541 1548 1540 1526 1512 1501 1501 1502 1504 1507 1509 1512 1515 1518 1521 1524 1526 1529 1531 1533 1535 1536 1537 1538 1539 1541 1542 1544 1545 1546 1546 1547 1548 1548
1499 1507 1494 1485 1482 1484 1489 1498 1520 1535 1551 1557 1544 1534 1528 1512 1507 1504 1505 1506 1509 1512 1514 1517 1519 1522 1524 1527 1529 1531 1533 1534 1535 1536 1537 1538 1540 1541 1543 1544 1544 1545 1546 1546
1492 1506 1501 1493 1493 1495 1494 1500 1514 1531 1537 1552 1554 1542 1510 1507 1503 1503 1504 1506 1507 1509 1512 1515 1517 1520 1522 1525 1527 1529 1531 1532 1532 1533 1535 1536 1537 1539 1540 1541 1542 1543 1544 1544
1491 1504 1512 1500 1487 1482 1487 1495 1510 1528 1533 1538 1545 1537 1501 1499 1498 1499 1502 1504 1505 1507 1510 1512 1516 1519 1521 1523 1525 1527 1528 1529 1530 1532 1533 1534 1536 1537 1538 1539 1540 1541 1542 1543
1489 1505 1520 1516 1506 1492 1491 1492 1499 1512 1526 1536 1542 1531 1501 1499 1499 1499 1500 1503 1504 1507 1509 1512 1514 1517 1519 1521 1523 1525 1526 1527 1529 1530 1532 1533 1535 1536 1537 1538 1538 1539 1540 1541
1484 1503 1514 1521 1515 1501 1497 1493 1494 1507 1524 1528 1524 1519 1506 1502 1500 1499 1500 1501 1502 1506 1508 1510 1513 1515 1517 1519 1522 1524 1525 1526 1528 1529 1531 1532 1534 1535 1535 1536 1537 1538 1539 1539
1488 1503 1501 1499 1494 1491 1492 1492 1491 1497 1504 1514 1511 1509 1503 1498 1496 1495 1496 1498 1500 1504 1507 1509 1511 1513 1515 1518 1520 1522 1524 1525 1526 1528 1529 1531 1532 1534 1534 1535 1536 1536 1537 1537
1494 1502 1503 1501 1492 1490 1492 1489 1488 1489 1492 1498 1500 1503 1494 1493 1493 1494 1495 1497 1500 1503 1505 1507 1509 1511 1514 1516 1518 1520 1521 1523 1525 1526 1528 1529 1531 1532 1533 1534 1534 1534 1535 1535
1500 1505 1512 1514 1500 1495 1504 1493 1490 1490 1489 1493 1501 1497 1492 1493 1492 1492 1493 1495 1498 1500 1502 1504 1506 1508 1511 1513 1516 1517 1520 1521 1523 1525 1527 1528 1529 1530 1531 1532 1532 1532 1533 1533
1500 1507 1516 1517 1510 1517 1504 1487 1485 1487 1488 1487 1489 1489 1489 1488 1488 1489 1490 1492 1496 1497 1500 1503 1505 1507 1509 1511 1514 1516 1518 1519 1521 1522 1524 1526 1527 1528 1529 1530 1530 1530 1530 1531
1491 1502 1514 1521 1520 1513 1497 1487 1486 1490 1494 1488 1488 1488 1488 1488 1489 1491 1491 1492 1494 1496 1498 1501 1503 1505 1508 1510 1512 1514 1516 1517 1519 1520 1522 1523 1525 1526 1527 1528 1528 1528 1528 1528
1490 1495 1509 1516 1518 1519 1502 1486 1483 1487 1499 1489 1486 1487 1489 1488 1495 1494 1491 1492 1493 1495 1497 1499 1501 1503 1505 1507 1510 1512 1514 1515 1516 1518 1520 1521 1523 1524 1524 1525 1526 1526 1526 1526
1501 1504 1509 1513 1515 1507 1493 1485 1484 1501 1501 1489 1485 1484 1486 1487 1487 1488 1489 1490 1492 1493 1495 1497 1499 1501 1503 1505 1508 1509 1511 1513 1515 1517 1518 1519 1521 1522 1522 1523 1523 1524 1524 1524
1505 1509 1511 1512 1515 1511 1490 1487 1491 1494 1488 1487 1485 1482 1483 1482 1484 1484 1487 1488 1489 1491 1493 1495 1497 1498 1501 1503 1505 1506 1508 1511 1513 1515 1516 1517 1518 1519 1520 1520 1521 1521 1522 1521
1502 1503 1504 1505 1505 1495 1490 1489 1488 1487 1487 1485 1484 1482 1482 1482 1483 1483 1486 1487 1487 1489 1492 1493 1495 1497 1499 1501 1503 1504 1506 1508 1510 1512 1514 1515 1515 1518 1519 1518 1519 1519 1520 1519
1499 1496 1498 1500 1496 1492 1490 1488 1486 1486 1485 1484 1483 1482 1482 1481 1483 1484 1486 1487 1487 1489 1491 1492 1494 1496 1498 1499 1501 1503 1505 1506 1508 1509 1511 1512 1513 1515 1516 1516 1517 1517 1518 1518
1500 1498 1499 1499 1495 1492 1490 1489 1487 1485 1484 1484 1484 1484 1484 1482 1483 1485 1486 1487 1487 1488 1491 1493 1493 1495 1497 1498 1500 1502 1504 1504 1506 1507 1509 1510 1511 1513 1512 1513 1515 1516 1516 1517
1498 1498 1500 1499 1494 1494 1492 1490 1487 1485 1484 1484 1484 1484 1486 1485 1483 1484 1485 1486 1487 1489 1491 1492 1493 1494 1496 1498 1499 1501 1502 1503 1503 1504 1506 1508 1509 1510 1511 1512 1513 1514 1515 1515